| time (UTC) | temp F | wind direction | speed knots | gust knots | rain 1hr in | rain 24hr in | rain mn in | humidity % | barometer mb |
| 20260503013003 | 60 | 249 | 5.2 | 8.7 | 0.00 | 0.00 | 0.00 | 42 | 1012.9 |
| 20260503011502 | 61 | 234 | 6.1 | 7.8 | 0.00 | 0.00 | 0.00 | 40 | 1012.9 |
| 20260503010002 | 61 | 229 | 3.5 | 5.2 | 0.00 | 0.00 | 0.00 | 39 | 1013.0 |
| 20260503004600 | 62 | 226 | 3.5 | 6.1 | 0.00 | 0.00 | 0.00 | 39 | 1013.0 |
| 20260503003104 | 62 | 221 | 4.3 | 7.0 | 0.00 | 0.00 | 0.00 | 37 | 1013.0 |
| 20260503001558 | 63 | 214 | 3.5 | 6.1 | 0.00 | 0.00 | 0.00 | 37 | 1013.4 |
| 20260503000110 | 63 | 252 | 4.3 | 7.0 | 0.00 | 0.00 | 0.00 | 37 | 1013.4 |
| 20260502234554 | 64 | 227 | 7.0 | 9.6 | 0.00 | 0.00 | 0.00 | 36 | 1013.4 |
| 20260502233053 | 64 | 241 | 4.3 | 7.0 | 0.00 | 0.00 | 0.00 | 36 | 1013.7 |
| 20260502231615 | 64 | 255 | 4.3 | 7.8 | 0.00 | 0.00 | 0.00 | 36 | 1013.7 |
| 20260502230051 | 64 | 262 | 5.2 | 9.6 | 0.00 | 0.00 | 0.00 | 35 | 1013.9 |
| 20260502224556 | 64 | 260 | 4.3 | 10.4 | 0.00 | 0.00 | 0.00 | 35 | 1014.3 |
| 20260502223047 | 64 | 212 | 4.3 | 7.8 | 0.00 | 0.00 | 0.00 | 35 | 1014.4 |
| 20260502221552 | 64 | 255 | 5.2 | 8.7 | 0.00 | 0.00 | 0.00 | 34 | 1014.5 |
| 20260502220049 | 65 | 276 | 4.3 | 9.6 | 0.00 | 0.00 | 0.00 | 34 | 1014.6 |
| 20260502214547 | 64 | 273 | 5.2 | 7.8 | 0.00 | 0.00 | 0.00 | 35 | 1014.9 |
| 20260502213041 | 64 | 275 | 4.3 | 9.6 | 0.00 | 0.00 | 0.00 | 35 | 1015.0 |
| 20260502211538 | 63 | 212 | 3.5 | 11.3 | 0.00 | 0.00 | 0.00 | 34 | 1015.2 |
| 20260502210038 | 64 | 280 | 5.2 | 9.6 | 0.00 | 0.00 | 0.00 | 35 | 1015.5 |
| 20260502204536 | 64 | 236 | 5.2 | 7.0 | 0.00 | 0.00 | 0.00 | 33 | 1015.7 |
| 20260502203034 | 64 | 285 | 5.2 | 10.4 | 0.00 | 0.00 | 0.00 | 34 | 1015.9 |
| 20260502201534 | 63 | 214 | 4.3 | 7.0 | 0.00 | 0.00 | 0.00 | 35 | 1016.1 |
| 20260502200029 | 62 | 281 | 7.0 | 10.4 | 0.00 | 0.00 | 0.00 | 34 | 1016.5 |
| 20260502194527 | 62 | 319 | 4.3 | 8.7 | 0.00 | 0.00 | 0.00 | 35 | 1016.8 |
| 20260502193025 | 61 | 298 | 3.5 | 10.4 | 0.00 | 0.00 | 0.00 | 35 | 1016.9 |
| 20260502191523 | 60 | 265 | 3.5 | 8.7 | 0.00 | 0.00 | 0.00 | 35 | 1017.2 |
| 20260502190027 | 60 | 272 | 2.6 | 8.7 | 0.00 | 0.00 | 0.00 | 35 | 1017.6 |
| 20260502184518 | 60 | 250 | 4.3 | 9.6 | 0.00 | 0.00 | 0.00 | 35 | 1017.8 |
| 20260502183017 | 59 | 273 | 3.5 | 10.4 | 0.00 | 0.00 | 0.00 | 35 | 1018.1 |
| 20260502181513 | 58 | 238 | 2.6 | 10.4 | 0.00 | 0.00 | 0.00 | 37 | 1018.3 |
| 20260502163057 | 54 | 276 | 5.2 | 10.4 | 0.00 | 0.00 | 0.00 | 39 | 1019.7 |
| 20260502161621 | 54 | 239 | 4.3 | 9.6 | 0.00 | 0.00 | 0.00 | 39 | 1019.9 |
| 20260502160116 | 53 | 232 | 6.1 | 10.4 | 0.00 | 0.00 | 0.00 | 40 | 1020.0 |
| 20260502151550 | 52 | 283 | 5.2 | 8.7 | 0.00 | 0.00 | 0.00 | 44 | 1020.5 |
| 20260502123027 | 36 | 229 | 2.6 | 3.5 | 0.00 | 0.00 | 0.00 | 77 | 1021.1 |
| 20260502121518 | 35 | 232 | 2.6 | 4.3 | 0.00 | 0.00 | 0.00 | 76 | 1021.0 |
| 20260502114516 | 35 | 231 | 3.5 | 4.3 | 0.00 | 0.00 | 0.00 | 73 | 1020.7 |
| 20260502113015 | 35 | 225 | 4.3 | 6.1 | 0.00 | 0.00 | 0.00 | 73 | 1020.7 |
| 20260502111514 | 34 | 230 | 3.5 | 5.2 | 0.00 | 0.00 | 0.00 | 73 | 1020.7 |
| 20260502110014 | 34 | 233 | 3.5 | 4.3 | 0.00 | 0.00 | 0.00 | 73 | 1020.8 |
| 20260502104510 | 35 | 234 | 3.5 | 4.3 | 0.00 | 0.00 | 0.00 | 73 | 1020.7 |
| 20260502103012 | 36 | 237 | 2.6 | 4.3 | 0.00 | 0.00 | 0.00 | 71 | 1020.7 |
| 20260502101508 | 36 | 243 | 2.6 | 3.5 | 0.00 | 0.00 | 0.00 | 70 | 1020.7 |
| 20260502091505 | 36 | 233 | 2.6 | 6.1 | 0.00 | 0.00 | 0.00 | 69 | 1020.6 |
| 20260502070045 | 39 | 233 | 2.6 | 4.3 | 0.00 | 0.00 | 0.00 | 62 | 1020.7 |
| 20260502064544 | 40 | 241 | 1.7 | 3.5 | 0.00 | 0.00 | 0.00 | 58 | 1021.0 |
| 20260502063053 | 40 | 314 | 0.9 | 2.6 | 0.00 | 0.00 | 0.00 | 58 | 1020.9 |
| 20260502061540 | 41 | 330 | 0.9 | 2.6 | 0.00 | 0.00 | 0.00 | 57 | 1020.9 |
| 20260502060042 | 40 | 330 | 0.9 | 2.6 | 0.00 | 0.00 | 0.00 | 58 | 1020.9 |
| 20260502054538 | 40 | 341 | 0.9 | 1.7 | 0.00 | 0.00 | 0.00 | 57 | 1020.9 |
| 20260502053038 | 42 | 341 | 0.9 | 1.7 | 0.00 | 0.00 | 0.00 | 54 | 1020.8 |
| 20260502051533 | 42 | 341 | 0.0 | 0.0 | 0.00 | 0.00 | 0.00 | 52 | 1020.7 |
| 20260502050034 | 43 | 341 | 0.0 | 0.0 | 0.00 | 0.00 | 0.00 | 51 | 1020.6 |
| 20260502044526 | 43 | 341 | 0.0 | 0.0 | 0.00 | 0.00 | 0.00 | 51 | 1020.6 |
| 20260502043026 | 43 | 341 | 0.9 | 1.7 | 0.00 | 0.00 | 0.00 | 50 | 1020.5 |
| 20260502041529 | 44 | 341 | 1.7 | 2.6 | 0.00 | 0.00 | 0.00 | 48 | 1020.5 |
| 20260502040025 | 45 | 341 | 1.7 | 2.6 | 0.00 | 0.00 | 0.00 | 48 | 1020.6 |
| 20260502034524 | 45 | 341 | 1.7 | 2.6 | 0.00 | 0.00 | 0.00 | 48 | 1020.6 |
| 20260502033026 | 45 | 342 | 1.7 | 3.5 | 0.00 | 0.00 | 0.00 | 48 | 1020.6 |
| 20260502031523 | 45 | 342 | 1.7 | 2.6 | 0.00 | 0.00 | 0.00 | 48 | 1020.6 |
| 20260502030029 | 45 | 342 | 1.7 | 3.5 | 0.00 | 0.00 | 0.00 | 48 | 1020.6 |
| 20260502024520 | 45 | 342 | 2.6 | 3.5 | 0.00 | 0.00 | 0.00 | 48 | 1020.4 |
| 20260502023021 | 45 | 342 | 2.6 | 3.5 | 0.00 | 0.00 | 0.00 | 49 | 1020.4 |
| 20260502021518 | 46 | 342 | 1.7 | 2.6 | 0.00 | 0.00 | 0.00 | 48 | 1020.3 |
| 20260502020017 | 47 | 342 | 1.7 | 3.5 | 0.00 | 0.00 | 0.00 | 47 | 1020.1 |
| 20260502014515 | 47 | 338 | 4.3 | 5.2 | 0.00 | 0.00 | 0.00 | 46 | 1019.9 |